Location: Dodgeville
(42.9600°N, 90.1300°W)
Time: 17:06:59
(UTC-05:00)

Amateur Radio Satellites - All Passes

Search period start: 29 August 2014 16:36
Search period end: 30 August 2014 16:36
Location: Dodgeville, 42.9600°N, 90.1300°W

Satellite Date Start Highest point End Downlink Frequencies (MHz)
Time Altitude Azimuth
PCSat 29 Aug 16:37:37 16:41:49 24° 107° (ESE) 16:46:02 145.825 MHz
ISS 29 Aug 16:51:55 16:55:07 43° 26° (NNE) 16:58:20 145.800 FM
Hamsat 29 Aug 16:56:12 16:58:49 16° 64° (ENE) 17:01:27 145.90 MHz
JAS-2 29 Aug 17:36:18 17:42:10 47° 70° (ENE) 17:47:28 435.800 - 435.900 CW/SSB, 435.910 FM
AO-7 29 Aug 17:40:43 17:47:59 33° 264° (W) 17:55:18 29.400 - 29.500 MHz
OPAL 29 Aug 17:46:39 17:51:55 88° 107° (ESE) 17:57:08 ?
RS-15 29 Aug 17:47:01 17:58:03 75° 242° (WSW) 18:09:32 29.354 - 29.394 USB, Beacon 29.352 USB
Sapphire 29 Aug 17:49:44 17:55:08 87° 119° (ESE) 18:00:35 437.095 MHz 1200 baud AX-25 AFSK
PCSat 29 Aug 18:19:35 18:24:51 53° 305° (NW) 18:30:11 145.825 MHz
ISS 29 Aug 18:28:52 18:31:45 27° 223° (SW) 18:34:37 145.800 FM
Hamsat 29 Aug 18:30:09 18:34:21 52° 261° (W) 18:38:37 145.90 MHz
SO-67 29 Aug 18:41:37 18:44:32 26° 70° (ENE) 18:47:28 435.3500 MHz FM
HO-68 29 Aug 18:57:18 19:00:05 13° 48° (NE) 19:02:52 435.675 MHz FM
JAS-2 29 Aug 19:22:20 19:27:25 26° 265° (W) 19:32:06 435.800 - 435.900 CW/SSB, 435.910 FM
OPAL 29 Aug 19:27:23 19:30:03 14° 304° (NW) 19:32:43 ?
STRAND 1 29 Aug 19:28:29 19:33:22 44° 99° (E) 19:38:13 ?
Sapphire 29 Aug 19:35:33 19:39:17 19° 319° (NW) 19:43:03 437.095 MHz 1200 baud AX-25 AFSK
RS-15 29 Aug 20:02:05 20:08:29 17° 262° (W) 20:15:03 29.354 - 29.394 USB, Beacon 29.352 USB
PCSat 29 Aug 20:07:33 20:09:35 12° 327° (NNW) 20:11:37 145.825 MHz
UKube-1 29 Aug 20:13:54 20:15:48 13° 61° (ENE) 20:17:42 145.840 MHz, 145.915 MHz
SO-67 29 Aug 20:15:07 20:17:36 18° 266° (W) 20:20:05 435.3500 MHz FM
HO-68 29 Aug 20:39:23 20:46:21 60° 68° (ENE) 20:53:21 435.675 MHz FM
STRAND 1 29 Aug 21:08:15 21:12:17 24° 296° (WNW) 21:16:19 ?
MaSat-1 29 Aug 21:27:44 21:28:43 11° 38° (NE) 21:29:40 437.345 MHz
UKube-1 29 Aug 21:47:07 21:51:26 70° 258° (WSW) 21:55:47 145.840 MHz, 145.915 MHz
Oscar 11 29 Aug 21:54:21 21:58:41 85° 76° (ENE) 22:03:04 145.825 FM, Beacon 2401.500 USB
FUNcube-1 29 Aug 22:17:16 22:21:20 56° 73° (ENE) 22:25:31 145.950 - 145.970 MHz USB
HO-68 29 Aug 22:28:34 22:34:26 27° 266° (W) 22:40:22 435.675 MHz FM
Saudisat 1A 29 Aug 22:46:11 22:50:09 34° 116° (ESE) 22:54:09 436.775 MHz
MaSat-1 29 Aug 23:02:13 23:06:53 63° 60° (ENE) 23:10:54 437.345 MHz
KITSAT 1 29 Aug 23:32:57 23:40:35 48° 112° (ESE) 23:48:13 435.175 FM
FUNcube-1 29 Aug 23:56:18 23:58:09 13° 270° (W) 00:00:01 145.950 - 145.970 MHz USB
Saudisat 1A 30 Aug 00:25:52 00:29:45 30° 314° (NW) 00:33:40 436.775 MHz
MaSat-1 30 Aug 00:41:09 00:43:07 13° 261° (W) 00:44:58 437.345 MHz
Sapphire 30 Aug 00:54:37 00:58:05 17° 39° (NE) 01:01:32 437.095 MHz 1200 baud AX-25 AFSK
PCSat 30 Aug 01:23:38 01:28:12 27° 46° (NE) 01:32:44 145.825 MHz
KITSAT 1 30 Aug 01:28:21 01:36:02 45° 313° (NW) 01:43:46 435.175 FM
Oscar 19 30 Aug 01:35:21 01:39:04 20° 92° (E) 01:42:45 437.125 CW, 437.150 USB
ITAMSAT 1 30 Aug 02:05:58 02:09:08 16° 91° (E) 02:12:18 435.822 SSB
Oscar 16 30 Aug 02:09:12 02:14:07 41° 98° (E) 02:19:00 437.025 USB, Beacon 2401.1428
AO-Echo 30 Aug 02:10:21 02:13:35 18° 92° (E) 02:16:47 ?
Uribyol 2 30 Aug 02:15:35 02:19:31 21° 93° (E) 02:23:26 436.500 FM
AO-27 30 Aug 02:33:44 02:38:16 30° 96° (E) 02:42:47 436.795 MHz FM
Sapphire 30 Aug 02:36:54 02:42:22 83° 60° (ENE) 02:47:48 437.095 MHz 1200 baud AX-25 AFSK
Gurwin Techsat 1B 30 Aug 02:56:56 03:01:06 23° 93° (E) 03:05:14 435.225 FM
PCSat 30 Aug 03:06:38 03:11:55 54° 245° (WSW) 03:17:10 145.825 MHz
Oscar 19 30 Aug 03:13:39 03:18:43 54° 289° (WNW) 03:23:46 437.125 CW, 437.150 USB
OPAL 30 Aug 03:25:12 03:29:10 24° 61° (ENE) 03:33:12 ?
JAS-1B 30 Aug 03:25:16 03:32:11 72° 102° (ESE) 03:38:06 435.800 - 435.900 CW/SSB
KITSAT 1 30 Aug 03:28:54 03:33:50 17° 339° (NNW) 03:38:47 435.175 FM
ITAMSAT 1 30 Aug 03:43:57 03:49:05 64° 288° (WNW) 03:54:12 435.822 SSB
AO-Echo 30 Aug 03:48:07 03:52:38 48° 289° (WNW) 03:57:08 ?
TMSAT-1 30 Aug 03:48:23 03:53:32 49° 99° (E) 03:58:38 436.925 FM
Oscar 16 30 Aug 03:48:58 03:53:15 27° 295° (WNW) 03:57:32 437.025 USB, Beacon 2401.1428
AO-7 30 Aug 03:49:18 03:54:01 16° 88° (E) 03:58:42 29.400 - 29.500 MHz
Uribyol 2 30 Aug 03:54:15 03:59:15 49° 290° (WNW) 04:04:14 436.500 FM
AO-27 30 Aug 04:13:07 04:17:48 35° 293° (WNW) 04:22:28 436.795 MHz FM
Sapphire 30 Aug 04:22:20 04:25:02 14° 257° (WSW) 04:27:45 437.095 MHz 1200 baud AX-25 AFSK
SO-50 30 Aug 04:22:46 04:27:13 76° 122° (ESE) 04:31:49 436.795 FM
Gurwin Techsat 1B 30 Aug 04:36:12 04:41:17 47° 290° (WNW) 04:46:21 435.225 FM
Uosat F 30 Aug 04:37:58 04:42:11 27° 95° (E) 04:46:24 435.120 FM
Oscar 10/S400 30 Aug 04:38:43 05:46:30 25° 245° (WSW) 08:41:10 145.825 - 145.975 CW/USB, Beacon 145.810 USB
UOSAT-12 30 Aug 04:49:46 04:51:39 12° 107° (ESE) 04:53:32 437.025 FM, 437.400 FM
OPAL 30 Aug 05:02:54 05:07:45 47° 259° (WSW) 05:12:42 ?
JAS-1B 30 Aug 05:17:04 05:21:56 21° 306° (NW) 05:26:20 435.800 - 435.900 CW/SSB
TMSAT-1 30 Aug 05:29:01 05:33:07 23° 297° (WNW) 05:37:12 436.925 FM
KITSAT 1 30 Aug 05:29:24 05:33:19 14° 10° (N) 05:37:13 435.175 FM
AO-7 30 Aug 05:39:40 05:48:00 81° 107° (ESE) 05:56:17 29.400 - 29.500 MHz
SO-50 30 Aug 06:05:14 06:08:21 18° 322° (NW) 06:11:31 436.795 FM
RS-15 30 Aug 06:06:40 06:11:36 14° 96° (E) 06:16:28 29.354 - 29.394 USB, Beacon 29.352 USB
Hamsat 30 Aug 06:15:24 06:19:04 26° 94° (E) 06:22:41 145.90 MHz
Uosat F 30 Aug 06:16:28 06:21:02 37° 292° (WNW) 06:25:36 435.120 FM
UOSAT-12 30 Aug 06:26:29 06:31:06 80° 305° (NW) 06:35:50 437.025 FM, 437.400 FM
JAS-2 30 Aug 06:28:38 06:33:23 34° 97° (E) 06:38:26 435.800 - 435.900 CW/SSB, 435.910 FM
STRAND 1 30 Aug 06:45:15 06:50:19 71° 73° (ENE) 06:55:24 ?
Saudisat 1A 30 Aug 07:11:46 07:15:55 38° 49° (NE) 07:20:01 436.775 MHz
KITSAT 1 30 Aug 07:24:52 07:31:53 31° 39° (NE) 07:38:50 435.175 FM
AO-7 30 Aug 07:33:33 07:39:56 26° 308° (NW) 07:46:18 29.400 - 29.500 MHz
SO-67 30 Aug 07:37:10 07:40:10 27° 96° (E) 07:43:08 435.3500 MHz FM
Hamsat 30 Aug 07:51:13 07:55:00 30° 291° (WNW) 07:58:45 145.90 MHz
UOSAT-12 30 Aug 08:09:16 08:12:02 15° 325° (NW) 08:14:50 437.025 FM, 437.400 FM
RS-15 30 Aug 08:10:46 08:21:42 68° 117° (ESE) 08:32:29 29.354 - 29.394 USB, Beacon 29.352 USB
JAS-2 30 Aug 08:13:57 08:18:28 31° 293° (WNW) 08:23:13 435.800 - 435.900 CW/SSB, 435.910 FM
STRAND 1 30 Aug 08:27:20 08:30:01 14° 270° (W) 08:32:42 ?
Saudisat 1A 30 Aug 08:51:41 08:55:20 26° 246° (WSW) 08:58:57 436.775 MHz
SO-67 30 Aug 09:10:37 09:13:02 18° 292° (WNW) 09:15:26 435.3500 MHz FM
KITSAT 1 30 Aug 09:20:00 09:28:05 78° 242° (WSW) 09:36:07 435.175 FM
UKube-1 30 Aug 09:35:26 09:38:28 18° 93° (E) 09:41:29 145.840 MHz, 145.915 MHz
Oscar 11 30 Aug 09:42:35 09:45:02 15° 91° (E) 09:47:29 145.825 FM, Beacon 2401.500 USB
HO-68 30 Aug 09:53:27 10:00:29 56° 102° (ESE) 10:07:29 435.675 MHz FM
FUNcube-1 30 Aug 10:07:36 10:09:00 11° 89° (E) 10:10:25 145.950 - 145.970 MHz USB
RS-15 30 Aug 10:24:32 10:34:46 42° 322° (NW) 10:45:01 29.354 - 29.394 USB, Beacon 29.352 USB
UKube-1 30 Aug 11:10:45 11:14:51 42° 290° (WNW) 11:18:56 145.840 MHz, 145.915 MHz
ISS 30 Aug 11:11:21 11:14:37 59° 143° (SE) 11:17:54 145.800 FM
SO-50 30 Aug 11:13:59 11:17:01 17° 37° (NE) 11:20:05 436.795 FM
Oscar 11 30 Aug 11:17:17 11:21:33 53° 287° (WNW) 11:25:47 145.825 FM, Beacon 2401.500 USB
KITSAT 1 30 Aug 11:17:57 11:22:09 15° 261° (W) 11:26:21 435.175 FM
FUNcube-1 30 Aug 11:41:21 11:45:52 75° 285° (WNW) 11:50:27 145.950 - 145.970 MHz USB
HO-68 30 Aug 11:41:45 11:47:49 31° 300° (WNW) 11:53:52 435.675 MHz FM
JAS-1B 30 Aug 12:21:36 12:27:33 19° 53° (NE) 12:33:05 435.800 - 435.900 CW/SSB
RS-15 30 Aug 12:42:54 12:51:08 23° 355° (N) 12:59:27 29.354 - 29.394 USB, Beacon 29.352 USB
ISS 30 Aug 12:48:37 12:51:33 28° 341° (NNW) 12:54:29 145.800 FM
MaSat-1 30 Aug 12:51:09 12:55:07 25° 104° (ESE) 12:59:17 437.345 MHz
Oscar 19 30 Aug 12:52:53 12:57:23 31° 66° (ENE) 13:01:55 437.125 CW, 437.150 USB
SO-50 30 Aug 12:53:28 12:58:17 86° 56° (NE) 13:03:09 436.795 FM
UOSAT-12 30 Aug 13:16:03 13:19:28 19° 39° (NE) 13:22:51 437.025 FM, 437.400 FM
AO-Echo 30 Aug 13:23:51 13:28:06 29° 67° (ENE) 13:32:16 ?
ITAMSAT 1 30 Aug 13:24:32 13:28:52 28° 65° (ENE) 13:33:13 435.822 SSB
Oscar 16 30 Aug 13:26:57 13:32:03 65° 73° (ENE) 13:37:12 437.025 USB, Beacon 2401.1428
Uribyol 2 30 Aug 13:34:12 13:38:51 36° 67° (ENE) 13:43:32 436.500 FM
TMSAT-1 30 Aug 13:34:13 13:36:14 12° 57° (ENE) 13:38:15 436.925 FM
AO-27 30 Aug 13:52:40 13:57:39 50° 70° (ENE) 14:02:39 436.795 MHz FM
JAS-1B 30 Aug 14:07:05 14:16:48 71° 71° (ENE) 14:25:31 435.800 - 435.900 CW/SSB
Gurwin Techsat 1B 30 Aug 14:18:43 14:23:37 39° 68° (ENE) 14:28:31 435.225 FM
ISS 30 Aug 14:26:40 14:29:03 18° 1° (N) 14:31:27 145.800 FM
MaSat-1 30 Aug 14:27:07 14:31:52 45° 303° (WNW) 14:36:51 437.345 MHz
Oscar 19 30 Aug 14:31:59 14:36:39 34° 264° (W) 14:41:21 437.125 CW, 437.150 USB
SO-50 30 Aug 14:36:21 14:38:11 12° 253° (WSW) 14:40:01 436.795 FM
AO-7 30 Aug 14:48:53 14:55:37 29° 54° (NE) 15:02:20 29.400 - 29.500 MHz
UOSAT-12 30 Aug 14:55:25 15:00:09 74° 238° (WSW) 15:04:48 437.025 FM, 437.400 FM
RS-15 30 Aug 14:58:23 15:08:05 34° 30° (NNE) 15:18:01 29.354 - 29.394 USB, Beacon 29.352 USB
AO-Echo 30 Aug 15:02:11 15:06:46 35° 263° (W) 15:11:15 ?
ITAMSAT 1 30 Aug 15:03:24 15:08:12 38° 262° (W) 15:13:01 435.822 SSB
Oscar 16 30 Aug 15:08:48 15:11:52 16° 270° (W) 15:14:58 437.025 USB, Beacon 2401.1428
TMSAT-1 30 Aug 15:10:01 15:15:18 83° 75° (ENE) 15:20:37 436.925 FM
Oscar 10/S400 30 Aug 15:13:16 15:20:13 12° 145° (SE) 15:26:39 145.825 - 145.975 CW/USB, Beacon 145.810 USB
Uribyol 2 30 Aug 15:13:54 15:18:21 29° 264° (W) 15:22:51 436.500 FM
AO-27 30 Aug 15:33:35 15:37:26 21° 267° (W) 15:41:18 436.795 MHz FM
Uosat F 30 Aug 15:51:59 15:56:39 41° 69° (ENE) 16:01:21 435.120 FM
Gurwin Techsat 1B 30 Aug 15:59:11 16:03:40 28° 265° (W) 16:08:11 435.225 FM
JAS-1B 30 Aug 15:59:25 16:07:41 31° 267° (W) 16:15:22 435.800 - 435.900 CW/SSB
ISS 30 Aug 16:03:30 16:06:31 31° 21° (NNE) 16:09:33 145.800 FM
PCSat 30 Aug 16:08:04 16:11:27 17° 105° (ESE) 16:14:51 145.825 MHz
